Regional Weather Roundup
Issued by NWS Cleveland, OH

Home | Current Version | Previous Version | Graphics & Text | Print | Product List | Glossary On
Versions: 1 2 3 4 5 6 7 8 9 10 11 12 13 14 15 16 17 18 19 20 21 22 23 24 25 26 27 28 29 30 31 32 33 34 35 36 37 38 39 40 41 42 43 44 45 46 47 48 49 50
000
ASUS41 KCLE 030802
RWRCLE
OHIO REGIONAL WEATHER ROUNDUP
NATIONAL WEATHER SERVICE CLEVELAND, OH
400 AM EDT WED JUN 03 2015

NOTE: "FAIR" INDICATES FEW OR NO CLOUDS BELOW 12,000 FEET WITH NO
SIGNIFICANT WEATHER AND/OR OBSTRUCTIONS TO VISIBILITY.

OHZ001>008-015>018-024>027-034-035-043-044-030900-
   NORTHWEST OHIO

CITY           SKY/WX    TMP DP  RH WIND       PRES   REMARKS
DEFIANCE       CLEAR     50  47  89 CALM      30.11S
FINDLAY        PTCLDY    52  49  89 E3        30.09F
TOLEDO EXPRESS CLEAR     49  46  90 CALM      30.11S
TOLEDO EXEC    CLEAR     53  47  79 CALM      30.11S
LIMA           CLEAR     49  47  93 CALM      30.09F
$$

OHZ009>014-019>023-028>033-038-089-030900-
   NORTHEAST OHIO

CITY           SKY/WX    TMP DP  RH WIND       PRES   REMARKS
CLE-HOPKINS    CLEAR     49  47  93 CALM      30.14R
CLE-LAKEFRONT  CLEAR     55  47  74 CALM      30.12R
CUY CO. ARPT   NOT AVBL
LORAIN-ELYRIA  CLEAR     49  47  93 CALM      30.12S FOG
ASHTABULA      NOT AVBL
AKRON-CANTON   CLEAR     53  49  86 NE7       30.12S
WOOSTER        CLEAR     52  50  93 NE5       30.12S
MANSFIELD      CLEAR     51  50  96 CALM      30.11
YOUNGSTOWN     PTCLDY    51  49  92 E6        30.14S
$$

OHZ042-051>053-060>062-070>072-077>081-030900-
  SOUTHWEST OHIO

CITY           SKY/WX    TMP DP  RH WIND       PRES   REMARKS
CINC-COVINGTON CLEAR     53  51  93 CALM      30.06F FOG
CINC-LUNKEN    FOG       50  50 100 CALM      30.08S VSB 1
HAMILTON       CLEAR     49  48  97 CALM      30.08F FOG
DAYTON         PTCLDY    53  52  96 E5        30.08F FOG
WRIGHT-PAT AFB CLOUDY    55  55  97 CALM      30.08S
DAYTON GENERAL MOCLDY    52  52 100 NE3       30.07S FOG
WILMINGTON     CLOUDY    56  52  86 NE3       30.07S FOG
$$

OHZ036-037-039>041-045>050-054>059-063>069-073>076-082>088-030900-
  CENTRAL AND SOUTHEAST OHIO

CITY           SKY/WX    TMP DP  RH WIND       PRES   REMARKS
COLUMBUS       CLOUDY    59  54  83 N3        30.07F
OSU AIRPORT    CLOUDY    58  54  86 N5        30.08F
BOLTON FIELD   NOT AVBL
RICKENBACK AFB CLOUDY    59  53  80 N6        30.07F
NEWARK         CLOUDY    60  54  80 NE3       30.08F
MARION         PTCLDY    54  52  93 N3        30.10F
LANCASTER      CLOUDY    59  55  87 CALM      30.08F
ZANESVILLE     NOT AVBL
NEW PHILLY     NOT AVBL
$$



USA.gov is the U.S. government's official web portal to all federal, state and local government web resources and services.